FLOCK 4S-43 (47687 NORAD) Tracking and Keplerian Element Data

This shows tracking and keplerian element data for the satellite.

Feedback or suggestion? Click here.




ElementValue
Catalog47687
NameFLOCK 4S-43
Epoch Orbit1355
Epoch Day105.87889365
Epoch Year2021
RAAN168.1279
Inclination97.4972
Eccentricity0.0006046
Argument of Perigee332.0569
Mean Anonmoly28.0335
Mean Motion15.11830201
Decay Rate1.626E-05
L11 47687U 21006EN 21105.87889365 .00001626 00000-0 98867-4 0 9991
L22 47687 97.4972 168.1279 0006046 332.0569 28.0335 15.11830201 13557

Live tracking and technical data element details for FLOCK 4S-43 (NORAD 47687). FLOCK 4S-43 can be tracked NOW for your location showing map with azimuth and elevation plus other details from your city location.

Track the satellite on the map from your city or location and see movement details for azimuth, elevation, latitude, longitude, range, height, and movement on the map or in text.







IsCatalogInMostPopularTable: catalog: 47687, numindb: 16
Update: records affected: 1



GetName: 47687 FLOCK 4S-43

Hit Count: updated at: Fri, 16 Apr 2021 11:04:48 GMT